DECAYED

STARLINK-6268, 56415 (Decayed)

Orbit data source: Space-Track

STARLINK-6268, 56415 was a payload satellite owned by SpaceX/Seattle (US) in LEO that was launched on Thu, 04 May 2023 UTC via an FALCON 9 launch vehicle from the Air Force Eastern Test Range (AFETR). Payload-class satellites include a variety of spacecraft equipped with specific instruments for various scientific and technological missions. These include communications satellites like Starlink; space stations such as the ISS; scientific satellites like the Hubble; Earth observation satellites from companies like Planet Labs, Umbra, and HawkEye 360; GPS; miniature CubeSats for education and research; and military/defense satellites.

Not visible in the next 10 days
Identifier
56415, 2023-061AT
Orbit
Decayed
Country
Flag of USUS
Related business
Manufacturer
SpaceX/Seattle
Mission
Decayed Commercial Communications
Bus & Motor
STARLINK, Unknown motor
Mass
305 kg wet, ~290 kg dry
Launch date (UTC)
2023-05-04 (3 years ago)
Launch vehicle
FALCON 9
Launch site
Air Force Eastern Test Range (AFETR)
Object type
Payload
Rocket body
Debris
Shape & HBR
Box + 1 Pan, 10.1 m
Radar Cross Section
11.087 m², Large (>1 m²)

Expand to show TLE details & history
Last TLE update: 7 months ago

TLE from 7 months ago
0 STARLINK-6268
1 56415U 23061AT  25326.42353332  .05660824  92173-5  56537-3 0  9993
2 56415  42.9764 330.1677 0002818 123.6980 236.4180 16.37106148141658
Epoch: 2025-11-22T10:09Z
TLE epoch observation values (Epoch: 2025-11-22T10:09:53.278Z)
Latitude
-0.00006°
Longitude
116.04322°
Altitude
174.295 km
Speed
7.803 km/s
True Right ascension
22h 00m 40s
True Declination
0° 00' 00"
Sunlit
Object was in daylight at epoch
Visualization orbit readout
Latitude
Unknown
Longitude
Unknown
Altitude
Unknown
Speed
Unknown
Apparent Right ascension
Unknown
Apparent Declination
Unknown
Sunlit
N/A
Visualization observer readout
Local Sidereal Time
21:32:48
Azimuth
Unknown
Elevation
Unknown
Doppler factor
Unknown
Orbital elements
Apogee altitude
177.4 km
Perigee altitude
173.706 km
Semi-major axis
6,553.69 km
Eccentricity
0.00028
Inclination
42.9764°
RAAN
330.1677°
Arg. of periapsis
123.698°
True anomaly
236.3911°
Mean anomaly
236.418°
Eccentric anomaly
236.40455°
Mean motion
4.09086 °/min
Orbital period
88 mins
BSTAR
0.00056537
Loading maneuver chart data...
Computing Atmospheric mass density...
Loading historical data...
Loading historical data...
Loading historical data...
Loading historical data...
Loading historical data...
Loading historical data...
Loading historical data...

Documentation

Showing up to 5 results
|